TOM64Y LKPR-LOWW

Flight info

Callsign TOM64Y
Flight time N/A
Altitude 20000
Route VOZ DCT LANUX LANUX7W
Aircraft B789/H-SDE1E2E3FGHIJ2J3J4J5M1RWXY/LB1D1

Departure

Time 2026-05-06 19:51
Airport Václav Havel Airport Prague (LKPR)

Arrival

Time N/A
Airport Vienna International Airport (LOWW)
Time Latitude Longitude Altitude Speed Heading
2026-05-06 19:16 50.11094 14.26925 1174 ft 0 kts 244°
2026-05-06 19:26 50.11095 14.26926 1179 ft 2 kts 244°
2026-05-06 19:26 50.11102 14.26949 1174 ft 2 kts 244°
2026-05-06 19:27 50.11109 14.26972 1174 ft 2 kts 244°
2026-05-06 19:27 50.11116 14.26995 1174 ft 2 kts 259°
2026-05-06 19:27 50.11112 14.27015 1174 ft 0 kts 334°
2026-05-06 19:30 50.11120 14.27010 1174 ft 4 kts 336°
2026-05-06 19:31 50.11166 14.26988 1175 ft 12 kts 340°
2026-05-06 19:31 50.11247 14.26909 1173 ft 12 kts 300°
2026-05-06 19:31 50.11206 14.26681 1171 ft 15 kts 245°
2026-05-06 19:32 50.11166 14.26548 1170 ft 9 kts 244°
2026-05-06 19:32 50.11127 14.26426 1171 ft 15 kts 243°
2026-05-06 19:32 50.11096 14.26323 1169 ft 7 kts 247°
2026-05-06 19:32 50.11059 14.26200 1166 ft 15 kts 244°
2026-05-06 19:33 50.11018 14.26061 1163 ft 15 kts 245°
2026-05-06 19:33 50.10976 14.25946 1166 ft 11 kts 230°
2026-05-06 19:33 50.10916 14.25865 1167 ft 12 kts 217°
2026-05-06 19:33 50.10818 14.25764 1170 ft 22 kts 215°
2026-05-06 19:34 50.10694 14.25620 1173 ft 18 kts 230°
2026-05-06 19:34 50.10693 14.25474 1171 ft 15 kts 293°
2026-05-06 19:34 50.10772 14.25265 1161 ft 18 kts 299°
2026-05-06 19:34 50.10780 14.25241 1160 ft 0 kts 297°
2026-05-06 19:35 50.10782 14.25236 1160 ft 2 kts 297°
2026-05-06 19:35 50.10796 14.25186 1162 ft 8 kts 292°
2026-05-06 19:35 50.10808 14.25119 1159 ft 0 kts 279°
2026-05-06 19:37 50.10809 14.25108 1162 ft 3 kts 278°
2026-05-06 19:37 50.10809 14.25107 1162 ft 0 kts 279°
2026-05-06 19:40 50.10809 14.25106 1162 ft 0 kts 279°
2026-05-06 19:40 50.10813 14.25059 1162 ft 8 kts 275°
2026-05-06 19:40 50.10818 14.24911 1159 ft 20 kts 272°
2026-05-06 19:40 50.10798 14.24684 1162 ft 22 kts 245°
2026-05-06 19:41 50.10747 14.24516 1163 ft 24 kts 244°
2026-05-06 19:41 50.10701 14.24362 1165 ft 14 kts 245°
2026-05-06 19:41 50.10647 14.24186 1164 ft 23 kts 244°
2026-05-06 19:41 50.10559 14.23895 1168 ft 40 kts 245°
2026-05-06 19:42 50.10433 14.23525 1184 ft 36 kts 229°
2026-05-06 19:42 50.10251 14.23464 1197 ft 25 kts 138°
2026-05-06 19:42 50.10225 14.23696 1191 ft 25 kts 82°
2026-05-06 19:42 50.10268 14.24011 1177 ft 32 kts 76°
2026-05-06 19:43 50.10299 14.24257 1175 ft 0 kts 79°
2026-05-06 19:43 50.10300 14.24264 1174 ft 3 kts 79°
2026-05-06 19:44 50.10319 14.24400 1172 ft 25 kts 78°
2026-05-06 19:44 50.10359 14.24751 1172 ft 34 kts 78°
2026-05-06 19:44 50.10401 14.25048 1174 ft 10 kts 78°
2026-05-06 19:44 50.10403 14.25064 1171 ft 0 kts 78°
2026-05-06 19:45 50.10403 14.25065 1171 ft 2 kts 78°
2026-05-06 19:45 50.10413 14.25141 1175 ft 13 kts 78°
2026-05-06 19:45 50.10440 14.25375 1178 ft 30 kts 79°
2026-05-06 19:46 50.10492 14.25659 1186 ft 26 kts 51°
2026-05-06 19:46 50.10594 14.25773 1176 ft 1 kts 31°
2026-05-06 19:46 50.10612 14.25766 1177 ft 6 kts 335°
2026-05-06 19:46 50.10651 14.25659 1174 ft 20 kts 288°
2026-05-06 19:47 50.10734 14.25367 1166 ft 32 kts 299°
2026-05-06 19:47 50.10805 14.25138 1159 ft 17 kts 284°
2026-05-06 19:47 50.10808 14.25115 1159 ft 0 kts 279°
2026-05-06 19:48 50.10810 14.25097 1160 ft 8 kts 278°
2026-05-06 19:48 50.10818 14.24891 1159 ft 31 kts 270°
2026-05-06 19:48 50.10785 14.24673 1163 ft 6 kts 229°
2026-05-06 19:49 50.10759 14.24665 1162 ft 7 kts 173°
2026-05-06 19:49 50.10722 14.24707 1163 ft 0 kts 126°
2026-05-06 19:50 50.10713 14.24726 1163 ft 13 kts 126°
2026-05-06 19:51 50.10554 14.25056 1167 ft 76 kts 127°
2026-05-06 19:51 50.10095 14.26005 1197 ft 140 kts 127°
2026-05-06 19:51 50.09409 14.27431 1424 ft 180 kts 123°
2026-05-06 19:51 50.08618 14.29079 2239 ft 199 kts 123°
2026-05-06 19:52 50.07801 14.30914 3038 ft 216 kts 122°
2026-05-06 19:52 50.06851 14.32913 3603 ft 245 kts 130°
2026-05-06 19:52 50.05689 14.35075 4404 ft 269 kts 129°
2026-05-06 19:52 50.04534 14.37421 5381 ft 269 kts 128°
2026-05-06 19:53 50.03426 14.39767 6691 ft 271 kts 130°
2026-05-06 19:53 50.02279 14.42135 7827 ft 277 kts 130°
2026-05-06 19:53 50.01095 14.44554 8964 ft 283 kts 131°
2026-05-06 19:53 49.99899 14.47005 10035 ft 291 kts 131°
2026-05-06 19:54 49.98539 14.49545 10503 ft 314 kts 143°
2026-05-06 19:54 49.96642 14.51333 10881 ft 335 kts 154°
2026-05-06 19:54 49.94577 14.53086 11899 ft 338 kts 155°
2026-05-06 19:54 49.92484 14.54831 12919 ft 344 kts 155°
2026-05-06 19:55 49.90364 14.56601 13887 ft 348 kts 155°
2026-05-06 19:55 49.88236 14.58388 14777 ft 353 kts 155°
2026-05-06 19:55 49.86046 14.60225 15665 ft 357 kts 155°
2026-05-06 19:55 49.83848 14.62063 16540 ft 361 kts 155°
2026-05-06 19:56 49.81616 14.63925 17414 ft 365 kts 156°
2026-05-06 19:56 49.79392 14.65780 18231 ft 370 kts 156°
2026-05-06 19:56 49.77089 14.67701 19003 ft 372 kts 156°
2026-05-06 19:56 49.74824 14.69587 19633 ft 378 kts 156°
2026-05-06 19:57 49.72476 14.71536 19748 ft 385 kts 156°
2026-05-06 19:57 49.70138 14.73485 19741 ft 378 kts 156°
2026-05-06 19:57 49.67817 14.75414 19749 ft 378 kts 156°
2026-05-06 19:57 49.65498 14.77332 19743 ft 378 kts 156°
2026-05-06 19:58 49.63962 14.78603 19747 ft 378 kts 156°
2026-05-06 19:58 49.61639 14.80526 19746 ft 377 kts 156°
2026-05-06 19:58 49.59323 14.82442 19743 ft 377 kts 156°
2026-05-06 19:58 49.57012 14.84349 19745 ft 377 kts 156°
2026-05-06 19:59 49.54732 14.86229 19747 ft 378 kts 157°
2026-05-06 19:59 49.52461 14.88363 19754 ft 382 kts 147°
2026-05-06 19:59 49.50343 14.90867 19753 ft 383 kts 148°
2026-05-06 19:59 49.48206 14.93337 19748 ft 383 kts 148°
2026-05-06 20:00 49.46080 14.95807 19750 ft 383 kts 148°
2026-05-06 20:00 49.43947 14.98300 19755 ft 384 kts 148°
2026-05-06 20:00 49.41845 15.00752 19749 ft 383 kts 148°
2026-05-06 20:00 49.39715 15.03224 19752 ft 384 kts 148°
2026-05-06 20:01 49.37585 15.05694 19752 ft 384 kts 148°
2026-05-06 20:01 49.35455 15.08165 19753 ft 384 kts 148°
2026-05-06 20:01 49.33317 15.10643 19750 ft 384 kts 148°
2026-05-06 20:01 49.31180 15.13115 19753 ft 384 kts 148°
2026-05-06 20:02 49.29073 15.15550 19745 ft 384 kts 148°
2026-05-06 20:02 49.26939 15.18013 19742 ft 384 kts 148°
2026-05-06 20:02 49.24807 15.20473 19744 ft 384 kts 148°
2026-05-06 20:02 49.22666 15.22940 19762 ft 384 kts 148°
2026-05-06 20:03 49.20530 15.25397 19758 ft 383 kts 148°
2026-05-06 20:03 49.18395 15.27850 19753 ft 383 kts 148°
2026-05-06 20:03 49.16264 15.30297 19751 ft 383 kts 148°
2026-05-06 20:03 49.14155 15.32716 19742 ft 382 kts 149°
2026-05-06 20:04 49.12036 15.35146 19741 ft 374 kts 149°
2026-05-06 20:04 49.10003 15.37484 19640 ft 355 kts 149°
2026-05-06 20:04 49.08046 15.39719 19205 ft 347 kts 149°
2026-05-06 20:04 49.06175 15.41846 18768 ft 341 kts 149°
2026-05-06 20:05 49.04289 15.43996 18313 ft 336 kts 149°
2026-05-06 20:05 49.02423 15.46124 17866 ft 336 kts 149°
2026-05-06 20:05 49.00549 15.48254 17429 ft 336 kts 149°
2026-05-06 20:05 48.98679 15.50382 16971 ft 335 kts 148°
2026-05-06 20:06 48.96826 15.52493 16741 ft 327 kts 148°
2026-05-06 20:06 48.95005 15.54562 16739 ft 329 kts 148°
2026-05-06 20:06 48.93145 15.56663 16746 ft 334 kts 148°
2026-05-06 20:06 48.91278 15.58781 16752 ft 334 kts 148°
2026-05-06 20:07 48.89406 15.60904 16755 ft 336 kts 148°
2026-05-06 20:07 48.87577 15.63140 16751 ft 337 kts 145°
2026-05-06 20:07 48.85753 15.65304 16757 ft 337 kts 147°